STARLINK-11562, 62918

Orbit data source: Space-Track

STARLINK-11562, 62918 is a payload satellite owned by SpaceX/Seattle (US) in LEO that was launched on Sat, 08 Feb 2025 UTC via an FALCON 9 launch vehicle from the Air Force Eastern Test Range (AFETR). Payload-class satellites include a variety of spacecraft equipped with specific instruments for various scientific and technological missions. These include communications satellites like Starlink; space stations such as the ISS; scientific satellites like the Hubble; Earth observation satellites from companies like Planet Labs, Umbra, and HawkEye 360; GPS; miniature CubeSats for education and research; and military/defense satellites.

Loading next visibility...
Identifier
62918, 2025-027M
Orbit
LEO
Country
Flag of USUS
Related business
Manufacturer
SpaceX/Seattle
Mission
Operational Commercial Communications
Bus & Motor
STARLINK V2MD, Unknown motor
Mass
960 kg wet, ~910 kg dry
Launch date (UTC)
2025-02-08 (1 year ago)
Launch vehicle
FALCON 9
Launch site
Air Force Eastern Test Range (AFETR)
Object type
Payload
Rocket body
Debris
Shape & HBR
Box + 2 Pan, 18.1 m
Radar Cross Section
36.964 m², Large (>1 m²)

Expand to show TLE details & history
Last TLE update: 16 hours ago

TLE from 16 hours ago
0 STARLINK-11562
1 62918U 25027M   26036.76728150  .00344842  00000-0  25716-2 0  9993
2 62918  42.9997 179.8920 0001267 299.8633  60.2108 15.70926794 58178
Epoch: 2026-02-05T18:24Z
TLE epoch observation values (Epoch: 2026-02-05T18:24:53.121Z)
Latitude
-0.00007°
Longitude
127.7558°
Altitude
355.594 km
Speed
7.698 km/s
True Right ascension
11h 59m 34s
True Declination
0° 00' 00"
Sunlit
Object was in full shadow at epoch
Visualization orbit readout
Latitude
Unknown
Longitude
Unknown
Altitude
Unknown
Speed
Unknown
Apparent Right ascension
Unknown
Apparent Declination
Unknown
Sunlit
N/A
Visualization observer readout
Local Sidereal Time
12:41:32
Azimuth
Unknown
Elevation
Unknown
Doppler factor
Unknown
Orbital elements
Apogee altitude
359.082 km
Perigee altitude
357.375 km
Semi-major axis
6,736.366 km
Eccentricity
0.00013
Inclination
42.9997°
RAAN
179.892°
Arg. of periapsis
299.8633°
True anomaly
60.2234°
Mean anomaly
60.2108°
Eccentric anomaly
60.2171°
Mean motion
3.92559 °/min
Orbital period
91.71 mins
BSTAR
0.0025716
Loading maneuver chart data...
Computing Atmospheric mass density...
Loading historical data...
Loading historical data...
Loading historical data...
Loading historical data...
Loading historical data...
Loading historical data...
Loading historical data...

Documentation

Showing up to 5 results
|